Content
SEND FEEDBACK

Daily
Averages
Monthly
Summary
United States of America

ASHEVILLE, NORTH CAROLINA


Home > North America > United States > North Carolina
Elevation: 682 meters     Latitude: 35 36N     Longitude: 082 32W

WEATHER
 
SELECT A DAY
Number of Records: 230,342;   Date Range: 1/1/95 - 11/23/14
 
SHARE

PRINT THIS DATA

[ ← Previous Day ]
WEATHER ALMANAC - 5 APRIL, 2013
[ Next Day → ]
[ °F ]   °C
Weather ElementAverageHighLow
Temperature6.8 °C14.4 °C (4:54 pm)3 °C (1:14 am)
Dewpoint2.3 °C4 °C (11:05 am)-2.2 °C (3:54 pm)
Humidity77.4 %100 % (1:14 am)32 % (4:54 pm)
Barometer1015.2 hPa1018.6 hPa (10:54 pm)1013.2 hPa (5:13 am)
Wind Speed15 km/h40.7 km/h (10:54 am)
Wind Gust50.1 km/h (10:54 am)
Weather ElementAverage
Visibility16.1 km
Wind DirectionWSW (244.4 °)

Weather ElementTotal
Precipitation---
Heating Degree Days9.7 (Base 18.3)
Averaged from 36 records on 5 April, 2013
WEATHER CONDITIONS BREAKOUT
WIND DIRECTION BREAKOUT
WEATHER BY HOUR - 5 APRIL, 2013
[ °F ]   °C
Local TimeTemperatureDewpointHumidityBarometerVisibilityWind DirectionWind SpeedGust SpeedPrecipitationEventsConditions
12:54 AM3.3 °C2.8 °C97 %1015.2 hPa16.1 kmCalmOvercast
1:14 AM3 °C3 °C100 %1014.6 hPa16.1 kmCalmOvercast
1:49 AM3 °C3 °C100 %1014.2 hPa16.1 kmCalmOvercast
1:54 AM3.3 °C2.8 °C97 %1014.9 hPa16.1 kmCalmOvercast
2:05 AM3 °C3 °C100 %1014.2 hPa16.1 kmSouth (170°)5.6 km/hOvercast
2:50 AM3 °C3 °C100 %1013.9 hPa16.1 kmCalmOvercast
2:54 AM3.3 °C2.8 °C97 %1014.6 hPa16.1 kmCalmOvercast
3:11 AM3 °C3 °C100 %1013.9 hPa16.1 kmCalmOvercast
3:48 AM3 °C3 °C100 %1013.9 hPa16.1 kmCalmOvercast
3:49 AM3.3 °C2.8 °C97 %1014.6 hPa16.1 kmCalmOvercast
4:05 AM3 °C3 °C100 %1013.5 hPa16.1 kmNorth (350°)5.6 km/hOvercast
4:14 AM4 °C3 °C93 %1013.5 hPa16.1 kmNorth (360°)5.6 km/hOvercast
4:54 AM3.9 °C2.2 °C89 %1013.5 hPa16.1 kmNorth (350°)13 km/hOvercast
5:13 AM4 °C3 °C93 %1013.2 hPa16.1 kmNorth (350°)24.1 km/h31.5 km/hOvercast
5:54 AM3.9 °C2.8 °C93 %1013.2 hPa16.1 kmNorth (350°)25.9 km/h35.2 km/hOvercast
6:54 AM3.9 °C2.8 °C93 %1014.2 hPa16.1 kmNorth (350°)18.5 km/hOvercast
7:22 AM4 °C3 °C93 %1014.2 hPa16.1 kmNorth (360°)22.2 km/hOvercast
7:54 AM4.4 °C2.8 °C89 %1015.2 hPa16.1 kmNorth (360°)18.5 km/h33.3 km/hOvercast
8:54 AM5.6 °C3.3 °C85 %1015.9 hPa16.1 kmNorth (350°)20.4 km/hOvercast
9:54 AM6.1 °C3.3 °C82 %1016.6 hPa16.1 kmNorth (350°)20.4 km/h29.6 km/hOvercast
10:54 AM7.8 °C3.9 °C76 %1016.3 hPa16.1 kmNNW (330°)40.7 km/h50.1 km/hMostly Cloudy
11:05 AM8 °C4 °C76 %1016.3 hPa16.1 kmNorth (350°)29.6 km/h46.3 km/hMostly Cloudy
11:54 AM8.9 °C3.9 °C71 %1016.3 hPa16.1 kmNNW (340°)29.6 km/h42.6 km/hMostly Cloudy
12:28 PM9 °C3 °C66 %1015.9 hPa16.1 kmNorth (350°)27.8 km/h40.7 km/hScattered Clouds
12:54 PM10.6 °C3.9 °C63 %1015.9 hPa16.1 kmNorth (350°)27.8 km/h40.7 km/hPartly Cloudy
1:54 PM11.7 °C3.9 °C59 %1015.6 hPa16.1 kmNNW (330°)27.8 km/h40.7 km/hPartly Cloudy
2:54 PM12.2 °C1.7 °C49 %1014.9 hPa16.1 kmNNW (340°)22.2 km/h33.3 km/hClear
3:54 PM13.3 °C-2.2 °C34 %1014.9 hPa16.1 kmNNW (330°)27.8 km/h38.9 km/hClear
4:54 PM14.4 °C-2.2 °C32 %1014.6 hPa16.1 kmNW (320°)31.5 km/h44.4 km/hClear
5:54 PM13.9 °C-1.1 °C36 %1015.6 hPa16.1 kmNorth (360°)16.7 km/h29.6 km/hClear
6:54 PM12.8 °C0 °C42 %1015.9 hPa16.1 kmNNW (330°)22.2 km/hClear
7:54 PM12.2 °C0 °C43 %1016.6 hPa16.1 kmNNW (340°)18.5 km/hClear
8:54 PM11.1 °C0.6 °C49 %1017.3 hPa16.1 kmNorth (350°)13 km/hClear
9:54 PM7.8 °C1.7 °C66 %1018.3 hPa16.1 kmNNW (330°)13 km/hClear
10:54 PM8.9 °C1.1 °C58 %1018.6 hPa16.1 kmCalmClear
11:54 PM6.7 °C1.1 °C68 %1018.6 hPa16.1 kmNorth (350°)11.1 km/hClear
Hourly data recorded from KAVL, located 0 kilometers away from Asheville, North Carolina







STORIES FROM OUR PARTNERS